| time (UTC) | temp F | wind direction | speed knots | gust knots | rain 1hr in | rain 24hr in | rain mn in | humidity % | barometer mb |
| 20260901220335 | 65 | 163 | 0.9 | 0.9 | 0.00 | 0.00 | 0.00 | 78 | 1008.6 |
| 20260901215301 | 65 | 102 | 0.0 | 0.0 | 0.00 | 0.00 | 0.00 | 77 | 1008.7 |
| 20260901214241 | 65 | 106 | 0.0 | 0.0 | 0.00 | 0.00 | 0.00 | 78 | 1008.7 |
| 20260901213232 | 65 | 115 | 0.9 | 0.9 | 0.00 | 0.00 | 0.00 | 76 | 1008.6 |
| 20260901212205 | 66 | 105 | 0.0 | 0.0 | 0.00 | 0.00 | 0.00 | 76 | 1008.8 |
| 20260901211159 | 67 | 86 | 0.9 | 0.9 | 0.00 | 0.00 | 0.00 | 74 | 1008.5 |
| 20260901210141 | 66 | 122 | 0.0 | 0.0 | 0.00 | 0.00 | 0.00 | 73 | 1008.6 |
| 20260901205136 | 66 | 116 | 0.0 | 0.9 | 0.00 | 0.00 | 0.00 | 73 | 1008.7 |
| 20260901204129 | 67 | 102 | 0.0 | 0.0 | 0.00 | 0.00 | 0.00 | 74 | 1008.8 |
| 20260901203117 | 66 | 106 | 0.0 | 0.0 | 0.00 | 0.00 | 0.00 | 76 | 1008.8 |
| 20260901202110 | 66 | 133 | 0.0 | 0.9 | 0.00 | 0.00 | 0.00 | 77 | 1008.9 |
| 20260901201106 | 66 | 101 | 0.0 | 0.0 | 0.00 | 0.00 | 0.00 | 76 | 1009.0 |
| 20260901200055 | 65 | 103 | 0.0 | 0.0 | 0.00 | 0.00 | 0.00 | 80 | 1008.8 |
| 20260901195043 | 65 | 107 | 0.0 | 0.0 | 0.00 | 0.00 | 0.00 | 79 | 1009.1 |
| 20260901194029 | 65 | 108 | 0.0 | 0.0 | 0.00 | 0.00 | 0.00 | 80 | 1009.0 |
| 20260901193028 | 65 | 106 | 0.0 | 0.0 | 0.00 | 0.00 | 0.00 | 80 | 1009.0 |
| 20260901191956 | 64 | 105 | 0.0 | 0.0 | 0.00 | 0.00 | 0.00 | 81 | 1009.0 |
| 20260901190956 | 64 | 105 | 0.0 | 0.0 | 0.00 | 0.00 | 0.00 | 82 | 1009.3 |
| 20260901185953 | 63 | 105 | 0.0 | 0.0 | 0.00 | 0.00 | 0.00 | 83 | 1009.3 |
| 20260901184931 | 63 | 105 | 0.0 | 0.0 | 0.00 | 0.00 | 0.00 | 82 | 1009.3 |
| 20260901183914 | 63 | 106 | 0.0 | 0.0 | 0.00 | 0.00 | 0.00 | 83 | 1009.3 |
| 20260901182846 | 63 | 105 | 0.0 | 0.0 | 0.00 | 0.00 | 0.00 | 83 | 1009.3 |
| 20260901181818 | 63 | 104 | 0.0 | 0.0 | 0.00 | 0.00 | 0.00 | 82 | 1009.1 |
| 20260901180748 | 64 | 105 | 0.0 | 0.0 | 0.00 | 0.00 | 0.00 | 81 | 1009.1 |
| 20260901175733 | 64 | 105 | 0.0 | 0.0 | 0.00 | 0.00 | 0.00 | 80 | 1009.2 |
| 20260901174730 | 64 | 103 | 0.0 | 0.0 | 0.00 | 0.00 | 0.00 | 80 | 1009.0 |
| 20260901173727 | 63 | 118 | 0.0 | 0.0 | 0.00 | 0.00 | 0.00 | 82 | 1009.1 |
| 20260901172708 | 63 | 111 | 0.0 | 0.0 | 0.00 | 0.00 | 0.00 | 82 | 1008.9 |
| 20260901171632 | 63 | 108 | 0.0 | 0.0 | 0.00 | 0.00 | 0.00 | 82 | 1008.8 |
| 20260901170612 | 63 | 100 | 0.0 | 0.0 | 0.00 | 0.00 | 0.00 | 82 | 1008.8 |
| 20260901165611 | 62 | 103 | 0.0 | 0.0 | 0.00 | 0.00 | 0.00 | 83 | 1008.9 |
| 20260901164557 | 62 | 103 | 0.0 | 0.0 | 0.00 | 0.00 | 0.00 | 84 | 1009.1 |
| 20260901163547 | 61 | 101 | 0.0 | 0.0 | 0.00 | 0.00 | 0.00 | 85 | 1009.0 |
| 20260901162521 | 61 | 101 | 0.0 | 0.9 | 0.00 | 0.00 | 0.00 | 87 | 1009.0 |
| 20260901161515 | 60 | 109 | 0.0 | 0.0 | 0.00 | 0.00 | 0.00 | 87 | 1009.1 |
| 20260901160457 | 60 | 105 | 0.0 | 0.0 | 0.00 | 0.00 | 0.00 | 88 | 1009.3 |
| 20260901155454 | 59 | 110 | 0.0 | 0.0 | 0.00 | 0.00 | 0.00 | 90 | 1009.2 |
| 20260901154454 | 59 | 112 | 0.0 | 0.0 | 0.00 | 0.00 | 0.00 | 90 | 1009.4 |
| 20260901153454 | 58 | 105 | 0.0 | 0.0 | 0.00 | 0.00 | 0.00 | 91 | 1009.3 |
| 20260901152438 | 58 | 105 | 0.0 | 0.0 | 0.00 | 0.00 | 0.00 | 92 | 1009.4 |
| 20260901151403 | 58 | 110 | 0.0 | 0.0 | 0.00 | 0.00 | 0.00 | 92 | 1009.3 |
| 20260901150359 | 57 | 108 | 0.0 | 0.0 | 0.00 | 0.00 | 0.00 | 94 | 1009.3 |
| 20260901145348 | 56 | 106 | 0.0 | 0.0 | 0.00 | 0.00 | 0.00 | 96 | 1009.4 |
| 20260901144337 | 56 | 107 | 0.0 | 0.0 | 0.00 | 0.00 | 0.00 | 97 | 1009.2 |
| 20260901143315 | 55 | 107 | 0.0 | 0.0 | 0.00 | 0.00 | 0.00 | 98 | 1009.2 |
| 20260901142248 | 54 | 113 | 0.0 | 0.0 | 0.00 | 0.00 | 0.00 | 98 | 1009.1 |
| 20260901141212 | 54 | 108 | 0.0 | 0.0 | 0.00 | 0.00 | 0.00 | 98 | 1009.0 |
| 20260901140145 | 54 | 108 | 0.0 | 0.0 | 0.00 | 0.00 | 0.00 | 97 | 1008.9 |
| 20260901135103 | 53 | 108 | 0.0 | 0.0 | 0.00 | 0.00 | 0.00 | 97 | 1008.7 |
| 20260901134040 | 53 | 108 | 0.0 | 0.0 | 0.00 | 0.00 | 0.00 | 97 | 1008.6 |
| 20260901133026 | 53 | 110 | 0.0 | 0.0 | 0.00 | 0.00 | 0.00 | 97 | 1008.7 |
| 20260901132024 | 53 | 110 | 0.0 | 0.0 | 0.00 | 0.00 | 0.00 | 97 | 1008.8 |
| 20260901131023 | 53 | 109 | 0.0 | 0.0 | 0.00 | 0.00 | 0.00 | 97 | 1008.7 |
| 20260901130000 | 53 | 109 | 0.0 | 0.0 | 0.00 | 0.00 | 0.00 | 97 | 1008.4 |
| 20260901124930 | 53 | 109 | 0.0 | 0.0 | 0.00 | 0.00 | 0.00 | 97 | 1008.4 |
| 20260901123913 | 53 | 109 | 0.0 | 0.0 | 0.00 | 0.00 | 0.00 | 97 | 1008.7 |
| 20260901122855 | 54 | 109 | 0.0 | 0.0 | 0.00 | 0.00 | 0.00 | 97 | 1008.5 |
| 20260901121831 | 54 | 110 | 0.0 | 0.0 | 0.00 | 0.00 | 0.00 | 97 | 1008.2 |
| 20260901120819 | 53 | 109 | 0.0 | 0.0 | 0.00 | 0.00 | 0.00 | 97 | 1008.5 |
| 20260901115819 | 54 | 109 | 0.0 | 0.0 | 0.00 | 0.00 | 0.00 | 97 | 1008.2 |
| 20260901114757 | 54 | 109 | 0.0 | 0.0 | 0.00 | 0.00 | 0.00 | 97 | 1008.3 |
| 20260901113750 | 54 | 109 | 0.0 | 0.0 | 0.00 | 0.00 | 0.00 | 97 | 1008.1 |
| 20260901112739 | 54 | 109 | 0.0 | 0.0 | 0.00 | 0.00 | 0.00 | 96 | 1007.8 |
| 20260901111731 | 54 | 109 | 0.0 | 0.0 | 0.00 | 0.00 | 0.00 | 96 | 1007.7 |
| 20260901110728 | 54 | 109 | 0.0 | 0.0 | 0.00 | 0.00 | 0.00 | 96 | 1007.9 |
| 20260901105700 | 55 | 109 | 0.0 | 0.0 | 0.00 | 0.00 | 0.00 | 96 | 1007.8 |
| 20260901104639 | 55 | 110 | 0.0 | 0.0 | 0.00 | 0.00 | 0.00 | 96 | 1007.9 |
| 20260901103634 | 55 | 109 | 0.0 | 0.0 | 0.00 | 0.00 | 0.00 | 96 | 1007.8 |
| 20260901102628 | 55 | 109 | 0.0 | 0.0 | 0.00 | 0.00 | 0.00 | 96 | 1007.9 |
| 20260901101617 | 55 | 109 | 0.0 | 0.0 | 0.00 | 0.00 | 0.00 | 96 | 1007.7 |
| 20260901100615 | 55 | 109 | 0.0 | 0.0 | 0.00 | 0.00 | 0.00 | 95 | 1007.7 |
| 20260901095549 | 55 | 109 | 0.0 | 0.0 | 0.00 | 0.00 | 0.00 | 95 | 1007.5 |
| 20260901094522 | 55 | 108 | 0.0 | 0.0 | 0.00 | 0.00 | 0.00 | 95 | 1007.4 |
| 20260901093517 | 55 | 108 | 0.0 | 0.0 | 0.00 | 0.00 | 0.00 | 95 | 1007.5 |
| 20260901092459 | 55 | 108 | 0.0 | 0.0 | 0.00 | 0.00 | 0.00 | 95 | 1007.4 |
| 20260901091458 | 56 | 108 | 0.0 | 0.0 | 0.00 | 0.00 | 0.00 | 94 | 1007.5 |
| 20260901090440 | 56 | 108 | 0.0 | 0.0 | 0.00 | 0.00 | 0.00 | 94 | 1007.4 |
| 20260901085407 | 56 | 108 | 0.0 | 0.0 | 0.00 | 0.00 | 0.00 | 93 | 1007.3 |
| 20260901084407 | 56 | 108 | 0.0 | 0.0 | 0.00 | 0.00 | 0.00 | 93 | 1007.3 |
| 20260901083342 | 56 | 108 | 0.0 | 0.0 | 0.00 | 0.00 | 0.00 | 92 | 1007.4 |
| 20260901082317 | 57 | 108 | 0.0 | 0.0 | 0.00 | 0.00 | 0.00 | 92 | 1007.4 |
| 20260901081247 | 57 | 108 | 0.0 | 0.0 | 0.00 | 0.00 | 0.00 | 92 | 1007.3 |
| 20260901080218 | 57 | 109 | 0.0 | 0.0 | 0.00 | 0.00 | 0.00 | 92 | 1007.2 |
| 20260901075211 | 57 | 109 | 0.0 | 0.0 | 0.00 | 0.00 | 0.00 | 91 | 1007.0 |
| 20260901074208 | 57 | 108 | 0.0 | 0.0 | 0.00 | 0.00 | 0.00 | 91 | 1007.0 |
| 20260901073149 | 57 | 108 | 0.0 | 0.0 | 0.00 | 0.00 | 0.00 | 90 | 1007.0 |
| 20260901072130 | 57 | 108 | 0.0 | 0.0 | 0.00 | 0.00 | 0.00 | 89 | 1006.8 |
| 20260901071102 | 58 | 108 | 0.0 | 0.0 | 0.00 | 0.00 | 0.00 | 88 | 1006.9 |
| 20260901070038 | 59 | 108 | 0.0 | 0.0 | 0.00 | 0.00 | 0.00 | 87 | 1006.9 |
| 20260901065009 | 59 | 108 | 0.0 | 0.0 | 0.00 | 0.00 | 0.00 | 87 | 1006.8 |
| 20260901063418 | 59 | 108 | 0.0 | 0.0 | 0.00 | 0.00 | 0.00 | 86 | 1007.0 |
| 20260901062355 | 59 | 109 | 0.0 | 0.0 | 0.00 | 0.00 | 0.00 | 85 | 1007.0 |
| 20260901061322 | 60 | 108 | 0.0 | 0.0 | 0.00 | 0.00 | 0.00 | 84 | 1007.0 |
| 20260901060305 | 60 | 109 | 0.0 | 0.0 | 0.00 | 0.00 | 0.00 | 83 | 1007.0 |
| 20260901055256 | 60 | 109 | 0.0 | 0.0 | 0.00 | 0.00 | 0.00 | 82 | 1007.2 |
| 20260901054244 | 60 | 108 | 0.0 | 0.0 | 0.00 | 0.00 | 0.00 | 83 | 1007.1 |
| 20260901053228 | 60 | 108 | 0.0 | 0.0 | 0.00 | 0.00 | 0.00 | 82 | 1007.2 |
| 20260901052226 | 61 | 108 | 0.0 | 0.0 | 0.00 | 0.00 | 0.00 | 81 | 1007.2 |
| 20260901051159 | 61 | 109 | 0.0 | 0.0 | 0.00 | 0.00 | 0.00 | 79 | 1007.1 |
| 20260901050158 | 61 | 108 | 0.0 | 0.0 | 0.00 | 0.00 | 0.00 | 80 | 1007.2 |
| 20260901045151 | 62 | 108 | 0.0 | 0.0 | 0.00 | 0.00 | 0.00 | 79 | 1007.2 |
| 20260901044138 | 62 | 108 | 0.0 | 0.0 | 0.00 | 0.00 | 0.00 | 78 | 1007.4 |
| 20260901043118 | 63 | 108 | 0.0 | 0.0 | 0.00 | 0.00 | 0.00 | 76 | 1007.1 |
| 20260901042047 | 63 | 108 | 0.0 | 0.0 | 0.00 | 0.00 | 0.00 | 75 | 1007.4 |
| 20260901041016 | 63 | 107 | 0.0 | 0.0 | 0.00 | 0.00 | 0.00 | 76 | 1007.2 |
| 20260901040002 | 64 | 105 | 0.0 | 0.0 | 0.00 | 0.00 | 0.00 | 73 | 1007.2 |
| 20260901034923 | 64 | 101 | 0.0 | 0.0 | 0.00 | 0.00 | 0.00 | 73 | 1007.0 |
| 20260901033912 | 65 | 108 | 0.0 | 0.0 | 0.00 | 0.00 | 0.00 | 72 | 1006.9 |
| 20260901032840 | 65 | 102 | 0.0 | 0.0 | 0.00 | 0.00 | 0.00 | 72 | 1006.7 |
| 20260901031822 | 66 | 104 | 0.0 | 0.0 | 0.00 | 0.00 | 0.00 | 71 | 1006.8 |
| 20260901030743 | 66 | 102 | 0.0 | 0.0 | 0.00 | 0.00 | 0.00 | 69 | 1006.6 |
| 20260901025730 | 67 | 102 | 0.0 | 0.0 | 0.00 | 0.00 | 0.00 | 67 | 1006.6 |
| 20260901024705 | 68 | 104 | 0.0 | 0.0 | 0.00 | 0.00 | 0.00 | 64 | 1006.5 |
| 20260901023647 | 69 | 85 | 0.0 | 0.9 | 0.00 | 0.00 | 0.00 | 63 | 1006.8 |
| 20260901022624 | 69 | 71 | 1.7 | 2.6 | 0.00 | 0.00 | 0.00 | 62 | 1006.8 |
| 20260901021602 | 70 | 60 | 1.7 | 2.6 | 0.00 | 0.00 | 0.00 | 62 | 1006.7 |
| 20260901020529 | 70 | 99 | 0.9 | 0.9 | 0.00 | 0.00 | 0.00 | 61 | 1006.8 |
| 20260901015521 | 71 | 90 | 0.0 | 0.0 | 0.00 | 0.00 | 0.00 | 61 | 1006.7 |
| 20260901014457 | 72 | 82 | 0.0 | 0.0 | 0.00 | 0.00 | 0.00 | 60 | 1006.8 |
| 20260901013418 | 73 | 93 | 0.0 | 0.0 | 0.00 | 0.00 | 0.00 | 59 | 1006.8 |
| 20260901012409 | 74 | 88 | 2.6 | 2.6 | 0.00 | 0.00 | 0.00 | 56 | 1006.7 |
| 20260901011357 | 74 | 104 | 0.9 | 0.9 | 0.00 | 0.00 | 0.00 | 56 | 1006.9 |
| 20260901010333 | 73 | 89 | 1.7 | 2.6 | 0.00 | 0.00 | 0.00 | 56 | 1006.7 |
| 20260901005308 | 74 | 128 | 0.9 | 1.7 | 0.00 | 0.00 | 0.00 | 54 | 1006.7 |
| 20260901004305 | 75 | 275 | 1.7 | 2.6 | 0.00 | 0.00 | 0.00 | 53 | 1006.5 |
| 20260901003231 | 76 | 98 | 0.9 | 0.9 | 0.00 | 0.00 | 0.00 | 51 | 1006.6 |
| 20260901002222 | 78 | 136 | 0.0 | 1.7 | 0.00 | 0.00 | 0.00 | 50 | 1006.7 |
| 20260901001201 | 78 | 237 | 3.5 | 5.2 | 0.00 | 0.00 | 0.00 | 48 | 1006.9 |
| 20260901000136 | 79 | 105 | 0.0 | 0.0 | 0.00 | 0.00 | 0.00 | 49 | 1006.9 |
| 20260831235133 | 78 | 87 | 0.9 | 0.9 | 0.00 | 0.00 | 0.00 | 49 | 1007.0 |
| 20260831234109 | 78 | 89 | 1.7 | 1.7 | 0.00 | 0.00 | 0.00 | 49 | 1007.1 |
| 20260831233053 | 78 | 82 | 2.6 | 2.6 | 0.00 | 0.00 | 0.00 | 49 | 1007.3 |
| 20260831232014 | 77 | 40 | 0.9 | 1.7 | 0.00 | 0.00 | 0.00 | 50 | 1007.3 |
| 20260831230952 | 78 | 65 | 1.7 | 2.6 | 0.00 | 0.00 | 0.00 | 49 | 1007.3 |
| 20260831225946 | 77 | 63 | 1.7 | 1.7 | 0.00 | 0.00 | 0.00 | 50 | 1007.7 |
| 20260831224925 | 77 | 137 | 0.0 | 0.9 | 0.00 | 0.00 | 0.00 | 49 | 1007.6 |
| 20260831223910 | 77 | 357 | 3.5 | 5.2 | 0.00 | 0.00 | 0.00 | 49 | 1007.8 |
| 20260831222905 | 77 | 72 | 1.7 | 1.7 | 0.00 | 0.00 | 0.00 | 50 | 1007.8 |
| 20260831221858 | 77 | 131 | 0.9 | 1.7 | 0.00 | 0.00 | 0.00 | 50 | 1007.9 |
| 20260831220816 | 75 | 105 | 0.0 | 0.0 | 0.00 | 0.00 | 0.00 | 53 | 1008.1 |